AirNav   Phillips 66 Aviation Fuel
 
 431 users online  

83Q Port of Poulsbo Marina Moorage Seaplane Base
Poulsbo, Washington, USA

GOING TO POULSBO?


FAA INFORMATION EFFECTIVE 29 MARCH 2018

Location

FAA Identifier: 83Q
Lat/Long: 47-43-15.5000N / 122-38-31.5000W
47-43.258333N / 122-38.525000W
47.7209722 / -122.6420833
(estimated)
Elevation: 0 ft. / 0 m (estimated)
Variation: 20E (1985)
Time zone: UTC -7 (UTC -8 during Standard Time)
Zip code: 98370

Seaplane Base Operations

Seaplane Base use: Open to the public
Activation date: 02/1987
Control tower: no
ARTCC: SEATTLE CENTER
FSS: SEATTLE FLIGHT SERVICE STATION
NOTAMs facility: SEA (NOTAM-D service available)
Attendance: 0800-1600
Segmented circle: no

Seaplane Base Communications

CTAF: 122.9
WX AWOS-3PT at PWT (15 nm S): 121.2 (360-674-2811)
WX ASOS at BFI (18 nm SE): PHONE 206-763-6904
WX ASOS at PAE (18 nm NE): 128.65 (425-355-6192)

Nearby radio navigation aids

VOR radial/distance  VOR name  Freq  Var
PAEr211/18.9PAINE VOR/DME110.6020E
SEAr303/21.8SEATTLE VORTAC116.8019E
CVVr155/31.6PENN COVE VOR/DME117.2019E
TCMr334/35.1MCCHORD VORTAC109.6015E

 
NDB name  Hdg/Dist  Freq  Var  ID
NOLLA283/11.536215EBF -... ..-.
PARKK295/17.728115EHPK .... .--. -.-
RENTON291/22.035317ERNT .-. -. -
MASON COUNTY013/33.634819EMNC -- -. -.-.
GRAYE341/34.321616EGRF --. .-. ..-.

Seaplane Base Services

Runway Information

Runway 13/31

Dimensions: 12000 x 4000 ft. / 3658 x 1219 m
Surface: water
RUNWAY 13  RUNWAY 31
Latitude: 47-44.078295N47-42.438707N
Longitude: 122-39.340305W122-37.710445W
Traffic pattern: leftleft
Runway heading: 126 magnetic, 146 true306 magnetic, 326 true

Seaplane Base Ownership and Management from official FAA records

Ownership: Publicly-owned
Owner: PORT OF POULSBO
PO BOX 732
POULSBO, WA 98370
Phone 360-779-9905
EXTENSION 4
Manager: BRAD MILLER
PO BOX 732
POULSBO, WA 98370
Phone 360-779-9905

Seaplane Base Operational Statistics

Aircraft operations: avg 25/month *
100% transient general aviation
* for 12-month period ending 31 December 2014

Additional Remarks

ORANGE BUOY 100 FT SW OF TSNT DOCK MARKS LOW TIDE ROCKS.
DOCK NOT ACCESSIBLE DURING -2 FT OR GREATER LOW TIDES.
DOCK CLOSED 3RD WEEKEND IN MAY AND JULY 3RD.
FOR CD CTC SEA APCH AT 206-214-4794.

Instrument Procedures

There are no published instrument procedures at 83Q.

Some nearby airports with instrument procedures:

KPWT - Bremerton National Airport (15 nm S)
KBFI - Boeing Field/King County International Airport (18 nm SE)
KPAE - Snohomish County Airport (Paine Field) (18 nm NE)
KSEA - Seattle-Tacoma International Airport (21 nm SE)
0S9 - Jefferson County International Airport (21 nm N)
 
Loc | Ops | Rwys | IFR | FBO | Links
Com | Nav | Svcs | Stats | Notes

AirNav Hotels Sweepstakes
 
Area around 83Q (Port of Poulsbo Marina Moorage Seaplane Base)
 
Road maps at: MapQuest Bing Google
 
Aerial photo
WARNING: Photo may not be current or correct
Aerial photo of 83Q (Port of Poulsbo Marina Moorage Seaplane Base)
Do you have a better or more recent aerial photo of Port of Poulsbo Marina Moorage Seaplane Base that you would like to share? If so, please send us your photo.

 
Sectional chart

 
Airport distance calculator
Flying to Port of Poulsbo Marina Moorage Seaplane Base? Find the distance to fly.

From to 83Q

Sunrise and sunset
Times for 20-Apr-2018
 Local
(UTC-7)
 Zulu
(UTC)
Morning civil twilight05:4012:40
Sunrise06:1313:13
Sunset20:0603:06
Evening civil twilight20:3903:39

Current date and time
Zulu (UTC)  21-Apr-2018 05:41:45
Local (UTC-7)  20-Apr-2018 22:41:45
 
METAR
KPWT 
14nm S 
210456Z AUTO 24013G20KT 10SM -RA SCT040 OVC055 09/02 A3017 RMK AO2 RAB36 SLP237 T00940017 PNO $
KBFI 
17nm SE 
210453Z 21006KT 10SM OVC090 12/02 A3017 RMK AO2 SLP214 T01220022
KPAE 
19nm NE 
210453Z 17011KT 10SM OVC085 12/00 A3014 RMK AO2 SLP209 T01170000
KSEA 
21nm SE 
210453Z 23007KT 10SM SCT075 OVC090 12/03 A3017 RMK AO2 SLP222 T01170028
K0S9 
21nm N 
210515Z AUTO 00000KT 10SM SCT090 BKN120 09/05 A3010 RMK AO2
KRNT 
22nm SE 
210453Z 18004KT 10SM OVC095 13/03 A3017 RMK AO2 SLP219 T01330028
KTIW 
27nm S 
210453Z AUTO 25007KT 10SM FEW065 OVC080 11/02 A3018 RMK AO2 SLP219 T01060022
TAF
KPWT 
14nm S 
201720Z 2018/2118 21006KT P6SM SCT120 BKN250 FM210000 23007KT P6SM BKN070 OVC150 FM210900 18012G18KT P6SM -RA BKN025 OVC050 FM211200 20014G22KT P6SM -SHRA BKN020 BKN040 FM211600 23008KT P6SM VCSH BKN030 BKN050
KBFI 
17nm SE 
201720Z 2018/2118 18006KT P6SM SCT120 BKN250 FM210000 23007KT P6SM BKN070 OVC150 FM210900 18012G18KT P6SM -RA BKN025 OVC050 FM211200 20014G22KT P6SM -SHRA BKN020 BKN040 FM211600 23008KT P6SM VCSH SCT030 BKN050
KPAE 
19nm NE 
201720Z 2018/2118 16006KT P6SM SCT120 BKN250 FM210000 23007KT P6SM BKN070 OVC150 FM210600 18012G22KT P6SM -RA BKN025 OVC050 FM211200 20015G25KT P6SM -SHRA BKN020 BKN040 FM211600 28008KT P6SM -SHRA BKN025 BKN050
NOTAMs
Click for the latest NOTAMs
NOTAMs are issued by the DoD/FAA and will open in a separate window not controlled by AirNav.

 

 
 

Would you like to see your business listed on this page?

 If your business provides an interesting product or service to pilots, flight crews, aircraft, or users of the Port of Poulsbo Marina Moorage Seaplane Base, you should consider listing it here.  To start the listing process, click on the button below
 
Add a business
 

Other Pages about Port of Poulsbo Marina Moorage Seaplane Base

Update a link
 
Copyright © AirNav, LLC. All rights reserved. Privacy Policy  Contact